Simultaneous Nadir Overpasses (SNOs) Predictions

Prediction of SNOs between GOES-16 and FY3D Satellite Orbit:

Table of predicted SNOs for the next 14.0 days since TLE Epoch: 8/14/2021
Index Date Time (GOES-16) GOES-16 Lat,Lon FY3D Lat,Lon Distance(km) Time Diff (sec)
1 08/14/2021 18:39:22 0.12, -75.23 0.27, -74.66 65.61 80
2 08/17/2021 06:41:51 -0.13, -75.24 -0.15, -75.25 2.49 80
3 08/19/2021 18:41:48 0.14, -75.25 -0.02, -75.86 69.59 80
4 08/20/2021 18:25:31 0.14, -75.26 1.04, -71.27 454.63 80
5 08/22/2021 06:46:58 -0.15, -75.28 0.14, -76.44 133.26 80
6 08/23/2021 06:25:21 -0.14, -75.29 -0.92, -71.86 391.48 80
7 08/24/2021 18:46:56 0.15, -75.32 -0.24, -77.07 199.85 80
8 08/25/2021 18:30:37 0.15, -75.33 0.76, -72.47 325.58 80
9 08/27/2021 06:52:06 -0.16, -75.37 0.36, -77.66 260.45 80
